Time,TemperatureF,DewpointF,PressureIn,WindDirection,WindDirectionDegrees,WindSpeedMPH,WindSpeedGustMPH,Humidity,HourlyPrecipIn,Conditions,Clouds,dailyrainin,SoftwareType,DateUTC
2013-01-24 00:03:00,46.8,40.3,30.28,West,268,1.0,2.0,78,0.00,,,0.00,Wunderground v.1.15,2013-01-24 05:03:00,
2013-01-24 00:13:00,47.3,40.1,30.28,West,276,1.0,1.0,76,0.00,,,0.00,Wunderground v.1.15,2013-01-24 05:13:00,
2013-01-24 00:18:00,47.6,40.1,30.28,West,273,1.0,2.0,75,0.00,,,0.00,Wunderground v.1.15,2013-01-24 05:18:00,
2013-01-24 00:28:00,48.1,39.5,30.28,West,281,1.0,1.0,72,0.00,,,0.00,Wunderground v.1.15,2013-01-24 05:28:00,
2013-01-24 00:33:00,48.2,39.6,30.28,WNW,283,1.0,2.0,72,0.00,,,0.00,Wunderground v.1.15,2013-01-24 05:33:00,
2013-01-24 00:43:00,48.0,39.4,30.28,NNW,337,0.0,0.0,72,0.00,,,0.00,Wunderground v.1.15,2013-01-24 05:43:00,
2013-01-24 00:53:00,48.1,39.5,30.27,WSW,257,0.0,1.0,72,0.00,,,0.00,Wunderground v.1.15,2013-01-24 05:53:00,
2013-01-24 00:58:00,48.2,39.2,30.28,West,272,1.0,3.0,71,0.00,,,0.00,Wunderground v.1.15,2013-01-24 05:58:00,
2013-01-24 01:04:00,48.3,39.3,30.28,WNW,298,1.0,3.0,71,0.00,,,0.00,Wunderground v.1.15,2013-01-24 06:04:00,
2013-01-24 01:13:00,48.1,39.5,30.28,South,186,1.0,1.0,72,0.00,,,0.00,Wunderground v.1.15,2013-01-24 06:13:00,
2013-01-24 01:23:00,47.7,39.1,30.28,NNW,344,0.0,1.0,72,0.00,,,0.00,Wunderground v.1.15,2013-01-24 06:23:00,
2013-01-24 01:33:00,47.5,39.3,30.28,WNW,303,0.0,0.0,73,0.00,,,0.00,Wunderground v.1.15,2013-01-24 06:33:00,
2013-01-24 01:38:00,47.3,39.1,30.28,West,268,0.0,0.0,73,0.00,,,0.00,Wunderground v.1.15,2013-01-24 06:38:00,
2013-01-24 01:43:00,47.3,39.4,30.28,West,277,1.0,2.0,74,0.00,,,0.00,Wunderground v.1.15,2013-01-24 06:43:00,
2013-01-24 01:53:00,47.4,39.5,30.28,West,267,1.0,3.0,74,0.00,,,0.00,Wunderground v.1.15,2013-01-24 06:53:00,
2013-01-24 02:04:00,47.5,39.3,30.28,WNW,300,1.0,2.0,73,0.00,,,0.00,Wunderground v.1.15,2013-01-24 07:04:00,
2013-01-24 02:13:00,47.6,39.7,30.28,WSW,257,1.0,1.0,74,0.00,,,0.00,Wunderground v.1.15,2013-01-24 07:13:00,
2013-01-24 02:23:00,47.5,39.3,30.28,West,272,1.0,1.0,73,0.00,,,0.00,Wunderground v.1.15,2013-01-24 07:23:00,
2013-01-24 02:33:00,47.5,39.3,30.28,WSW,250,1.0,3.0,73,0.00,,,0.00,Wunderground v.1.15,2013-01-24 07:33:00,
2013-01-24 02:38:00,47.6,39.4,30.28,SW,233,1.0,1.0,73,0.00,,,0.00,Wunderground v.1.15,2013-01-24 07:38:00,
2013-01-24 02:48:00,47.7,39.5,30.27,WNW,292,1.0,3.0,73,0.00,,,0.00,Wunderground v.1.15,2013-01-24 07:48:00,
2013-01-24 02:58:00,47.7,39.5,30.28,SE,130,2.0,2.0,73,0.00,,,0.00,Wunderground v.1.15,2013-01-24 07:58:00,
2013-01-24 03:04:00,47.6,39.4,30.28,West,281,1.0,2.0,73,0.00,,,0.00,Wunderground v.1.15,2013-01-24 08:04:00,
2013-01-24 03:13:00,47.4,39.5,30.28,NNW,331,1.0,1.0,74,0.00,,,0.00,Wunderground v.1.15,2013-01-24 08:13:00,
2013-01-24 03:23:00,47.4,39.5,30.27,West,261,2.0,2.0,74,0.00,,,0.00,Wunderground v.1.15,2013-01-24 08:23:00,
2013-01-24 03:33:00,47.4,39.9,30.27,WNW,300,3.0,5.0,75,0.00,,,0.00,Wunderground v.1.15,2013-01-24 08:33:00,
2013-01-24 03:43:00,47.2,39.7,30.26,West,275,2.0,3.0,75,0.00,,,0.00,Wunderground v.1.15,2013-01-24 08:43:00,
2013-01-24 03:53:00,47.0,39.8,30.26,WSW,257,2.0,2.0,76,0.00,,,0.00,Wunderground v.1.15,2013-01-24 08:53:00,
2013-01-24 03:58:00,46.9,39.7,30.26,NNW,335,2.0,2.0,76,0.00,,,0.00,Wunderground v.1.15,2013-01-24 08:58:00,
2013-01-24 04:04:00,46.8,39.6,30.26,West,261,1.0,2.0,76,0.00,,,0.00,Wunderground v.1.15,2013-01-24 09:04:00,
2013-01-24 04:13:00,46.7,39.9,30.26,WSW,248,1.0,1.0,77,0.00,,,0.00,Wunderground v.1.15,2013-01-24 09:13:00,
2013-01-24 04:18:00,46.8,40.0,30.25,WSW,249,2.0,2.0,77,0.00,,,0.00,Wunderground v.1.15,2013-01-24 09:18:00,
2013-01-24 04:28:00,46.9,40.4,30.25,SW,228,1.0,1.0,78,0.00,,,0.00,Wunderground v.1.15,2013-01-24 09:28:00,
2013-01-24 04:33:00,46.9,40.4,30.26,NE,43,1.0,1.0,78,0.00,,,0.00,Wunderground v.1.15,2013-01-24 09:33:00,
2013-01-24 04:43:00,46.8,40.3,30.25,SW,236,1.0,1.0,78,0.00,,,0.00,Wunderground v.1.15,2013-01-24 09:43:00,
2013-01-24 04:48:00,46.9,40.7,30.26,NNW,333,1.0,1.0,79,0.00,,,0.00,Wunderground v.1.15,2013-01-24 09:48:00,
2013-01-24 04:58:00,47.1,40.9,30.26,North,11,1.0,4.0,79,0.00,,,0.00,Wunderground v.1.15,2013-01-24 09:58:00,
2013-01-24 05:04:00,47.1,40.9,30.26,NNW,331,2.0,4.0,79,0.00,,,0.00,Wunderground v.1.15,2013-01-24 10:04:00,
2013-01-24 05:13:00,47.7,41.2,30.26,WNW,300,1.0,2.0,78,0.00,,,0.00,Wunderground v.1.15,2013-01-24 10:13:00,
2013-01-24 05:18:00,47.7,41.2,30.26,NNE,23,2.0,2.0,78,0.00,,,0.00,Wunderground v.1.15,2013-01-24 10:18:00,
2013-01-24 05:23:00,47.5,41.0,30.26,NNW,344,1.0,2.0,78,0.00,,,0.00,Wunderground v.1.15,2013-01-24 10:23:00,
2013-01-24 05:33:00,48.0,41.5,30.25,NNW,348,2.0,2.0,78,0.00,,,0.00,Wunderground v.1.15,2013-01-24 10:33:00,
2013-01-24 05:38:00,48.1,41.6,30.25,West,277,1.0,2.0,78,0.00,,,0.00,Wunderground v.1.15,2013-01-24 10:38:00,
2013-01-24 05:48:00,48.1,41.6,30.26,West,269,1.0,1.0,78,0.00,,,0.00,Wunderground v.1.15,2013-01-24 10:48:00,
2013-01-24 05:53:00,48.1,41.6,30.26,NNE,17,1.0,3.0,78,0.00,,,0.00,Wunderground v.1.15,2013-01-24 10:53:00,
2013-01-24 06:04:00,48.2,41.7,30.27,NNE,27,1.0,3.0,78,0.00,,,0.00,Wunderground v.1.15,2013-01-24 11:04:00,
2013-01-24 06:13:00,47.9,41.4,30.27,WSW,249,0.0,1.0,78,0.00,,,0.00,Wunderground v.1.15,2013-01-24 11:13:00,
2013-01-24 06:23:00,47.7,41.5,30.27,West,265,0.0,0.0,79,0.00,,,0.00,Wunderground v.1.15,2013-01-24 11:23:00,
2013-01-24 06:33:00,47.9,42.0,30.27,North,349,1.0,1.0,80,0.00,,,0.00,Wunderground v.1.15,2013-01-24 11:33:00,
2013-01-24 06:38:00,48.1,42.2,30.27,NNW,346,1.0,2.0,80,0.00,,,0.00,Wunderground v.1.15,2013-01-24 11:38:00,
2013-01-24 06:48:00,48.8,43.2,30.28,East,82,3.0,3.0,81,0.00,,,0.00,Wunderground v.1.15,2013-01-24 11:48:00,
2013-01-24 06:53:00,49.2,43.6,30.28,NNW,335,3.0,4.0,81,0.00,,,0.00,Wunderground v.1.15,2013-01-24 11:53:00,
2013-01-24 07:03:00,49.3,43.7,30.28,NE,51,2.0,3.0,81,0.00,,,0.00,Wunderground v.1.15,2013-01-24 12:03:00,
2013-01-24 07:13:00,49.4,43.8,30.28,NNW,344,2.0,2.0,81,0.00,,,0.00,Wunderground v.1.15,2013-01-24 12:13:00,
2013-01-24 07:18:00,49.5,43.9,30.28,NNW,331,2.0,2.0,81,0.00,,,0.00,Wunderground v.1.15,2013-01-24 12:18:00,
2013-01-24 07:23:00,49.5,43.9,30.29,North,349,2.0,2.0,81,0.00,,,0.00,Wunderground v.1.15,2013-01-24 12:23:00,
2013-01-24 07:33:00,49.4,43.8,30.28,WSW,242,1.0,2.0,81,0.00,,,0.00,Wunderground v.1.15,2013-01-24 12:33:00,
2013-01-24 07:38:00,49.4,44.1,30.28,NE,34,1.0,5.0,82,0.00,,,0.00,Wunderground v.1.15,2013-01-24 12:38:00,
2013-01-24 07:48:00,49.9,44.6,30.28,SSW,209,3.0,3.0,82,0.00,,,0.00,Wunderground v.1.15,2013-01-24 12:48:00,
2013-01-24 07:53:00,50.0,44.4,30.28,West,281,3.0,5.0,81,0.00,,,0.00,Wunderground v.1.15,2013-01-24 12:53:00,
2013-01-24 08:03:00,50.4,44.8,30.29,NNE,24,3.0,3.0,81,0.00,,,0.00,Wunderground v.1.15,2013-01-24 13:03:00,
2013-01-24 08:13:00,51.0,45.0,30.28,NW,314,3.0,7.0,80,0.00,,,0.00,Wunderground v.1.15,2013-01-24 13:13:00,
2013-01-24 08:23:00,51.7,45.4,30.28,NW,319,3.0,3.0,79,0.00,,,0.00,Wunderground v.1.15,2013-01-24 13:23:00,
2013-01-24 08:28:00,52.0,45.4,30.29,WNW,286,3.0,3.0,78,0.00,,,0.00,Wunderground v.1.15,2013-01-24 13:28:00,
2013-01-24 12:03:00,68.3,51.5,30.26,North,350,7.0,11.0,55,0.00,,,0.00,Wunderground v.1.15,2013-01-24 17:03:00,
2013-01-24 12:13:00,69.1,51.8,30.26,NE,41,8.0,8.0,54,0.00,,,0.00,Wunderground v.1.15,2013-01-24 17:13:00,
2013-01-24 12:18:00,68.9,51.1,30.26,ENE,59,8.0,13.0,53,0.00,,,0.00,Wunderground v.1.15,2013-01-24 17:18:00,
2013-01-24 12:28:00,68.4,51.1,30.26,NNW,339,12.0,12.0,54,0.00,,,0.00,Wunderground v.1.15,2013-01-24 17:28:00,
2013-01-24 12:33:00,68.8,51.5,30.25,NNW,343,10.0,12.0,54,0.00,,,0.00,Wunderground v.1.15,2013-01-24 17:33:00,
2013-01-24 12:43:00,69.3,51.9,30.25,ENE,63,10.0,13.0,54,0.00,,,0.00,Wunderground v.1.15,2013-01-24 17:43:00,
2013-01-24 12:48:00,69.4,51.0,30.25,NNW,340,11.0,14.0,52,0.00,,,0.00,Wunderground v.1.15,2013-01-24 17:48:00,
2013-01-24 12:58:00,69.5,51.1,30.25,North,5,12.0,14.0,52,0.00,,,0.00,Wunderground v.1.15,2013-01-24 17:58:00,
2013-01-24 13:03:00,69.9,51.5,30.25,NE,50,11.0,14.0,52,0.00,,,0.00,Wunderground v.1.15,2013-01-24 18:03:00,
2013-01-24 13:13:00,70.8,51.8,30.25,ENE,66,10.0,12.0,51,0.00,,,0.00,Wunderground v.1.15,2013-01-24 18:13:00,
2013-01-24 13:18:00,70.7,51.1,30.24,WNW,301,9.0,12.0,50,0.00,,,0.00,Wunderground v.1.15,2013-01-24 18:18:00,
2013-01-24 13:28:00,70.5,51.0,30.24,NNE,24,10.0,10.0,50,0.00,,,0.00,Wunderground v.1.15,2013-01-24 18:28:00,
2013-01-24 13:33:00,70.9,51.3,30.24,ENE,62,9.0,13.0,50,0.00,,,0.00,Wunderground v.1.15,2013-01-24 18:33:00,
2013-01-24 13:43:00,70.7,50.0,30.24,NNW,337,10.0,10.0,48,0.00,,,0.00,Wunderground v.1.15,2013-01-24 18:43:00,
2013-01-24 13:53:00,70.9,50.8,30.23,NE,43,8.0,13.0,49,0.00,,,0.00,Wunderground v.1.15,2013-01-24 18:53:00,
2013-01-24 13:58:00,71.0,50.3,30.22,NW,314,10.0,10.0,48,0.00,,,0.00,Wunderground v.1.15,2013-01-24 18:58:00,
2013-01-24 14:04:00,71.1,50.4,30.22,NNE,14,9.0,15.0,48,0.00,,,0.00,Wunderground v.1.15,2013-01-24 19:04:00,
2013-01-24 14:13:00,70.8,50.7,30.21,West,274,10.0,12.0,49,0.00,,,0.00,Wunderground v.1.15,2013-01-24 19:13:00,
2013-01-24 14:23:00,71.3,50.0,30.21,West,279,10.0,14.0,47,0.00,,,0.00,Wunderground v.1.15,2013-01-24 19:23:00,
2013-01-24 14:33:00,71.0,50.3,30.20,WNW,303,11.0,11.0,48,0.00,,,0.00,Wunderground v.1.15,2013-01-24 19:33:00,
2013-01-24 14:38:00,71.5,50.2,30.20,West,279,9.0,9.0,47,0.00,,,0.00,Wunderground v.1.15,2013-01-24 19:38:00,
2013-01-24 14:48:00,71.4,50.1,30.21,West,269,12.0,15.0,47,0.00,,,0.00,Wunderground v.1.15,2013-01-24 19:48:00,
2013-01-24 14:58:00,70.8,49.6,30.20,NNW,329,11.0,14.0,47,0.00,,,0.00,Wunderground v.1.15,2013-01-24 19:58:00,
2013-01-24 15:04:00,71.1,49.8,30.20,West,272,10.0,14.0,47,0.00,,,0.00,Wunderground v.1.15,2013-01-24 20:04:00,
2013-01-24 15:13:00,71.8,49.9,30.19,WSW,237,9.0,14.0,46,0.00,,,0.00,Wunderground v.1.15,2013-01-24 20:13:00,
2013-01-24 15:23:00,71.5,50.2,30.20,West,263,9.0,10.0,47,0.00,,,0.00,Wunderground v.1.15,2013-01-24 20:23:00,
2013-01-24 15:33:00,71.8,49.9,30.20,WNW,298,6.0,8.0,46,0.00,,,0.00,Wunderground v.1.15,2013-01-24 20:33:00,
2013-01-24 15:43:00,71.9,50.0,30.20,WNW,295,9.0,10.0,46,0.00,,,0.00,Wunderground v.1.15,2013-01-24 20:43:00,
2013-01-24 15:53:00,71.8,50.5,30.20,NW,306,10.0,14.0,47,0.00,,,0.00,Wunderground v.1.15,2013-01-24 20:53:00,
2013-01-24 15:58:00,71.7,49.8,30.20,NW,323,9.0,9.0,46,0.00,,,0.00,Wunderground v.1.15,2013-01-24 20:58:00,
2013-01-24 16:03:00,71.4,49.5,30.20,West,264,9.0,14.0,46,0.00,,,0.00,Wunderground v.1.15,2013-01-24 21:03:00,
2013-01-24 16:13:00,70.7,50.0,30.20,WNW,288,11.0,11.0,48,0.00,,,0.00,Wunderground v.1.15,2013-01-24 21:13:00,
2013-01-24 16:18:00,70.6,50.0,30.20,West,273,8.0,8.0,48,0.00,,,0.00,Wunderground v.1.15,2013-01-24 21:18:00,
2013-01-24 16:28:00,70.3,50.2,30.20,WNW,302,6.0,6.0,49,0.00,,,0.00,Wunderground v.1.15,2013-01-24 21:28:00,
2013-01-24 16:33:00,70.3,50.2,30.20,West,279,6.0,11.0,49,0.00,,,0.00,Wunderground v.1.15,2013-01-24 21:33:00,
2013-01-24 16:38:00,70.3,50.2,30.21,West,278,8.0,8.0,49,0.00,,,0.00,Wunderground v.1.15,2013-01-24 21:38:00,
2013-01-24 16:48:00,70.1,50.6,30.21,WNW,294,7.0,7.0,50,0.00,,,0.00,Wunderground v.1.15,2013-01-24 21:48:00,
2013-01-24 16:53:00,70.2,50.7,30.21,WNW,288,7.0,7.0,50,0.00,,,0.00,Wunderground v.1.15,2013-01-24 21:53:00,
2013-01-24 17:03:00,70.1,51.1,30.21,West,269,4.0,6.0,51,0.00,,,0.00,Wunderground v.1.15,2013-01-24 22:03:00,
2013-01-24 17:13:00,69.9,50.9,30.22,West,271,3.0,4.0,51,0.00,,,0.00,Wunderground v.1.15,2013-01-24 22:13:00,
2013-01-24 17:18:00,69.8,51.4,30.21,WSW,245,3.0,3.0,52,0.00,,,0.00,Wunderground v.1.15,2013-01-24 22:18:00,
2013-01-24 17:28:00,69.8,50.9,30.22,West,264,4.0,4.0,51,0.00,,,0.00,Wunderground v.1.15,2013-01-24 22:28:00,
2013-01-24 17:33:00,69.7,50.8,30.22,West,277,4.0,6.0,51,0.00,,,0.00,Wunderground v.1.15,2013-01-24 22:33:00,
2013-01-24 17:43:00,69.3,50.9,30.22,West,271,5.0,9.0,52,0.00,,,0.00,Wunderground v.1.15,2013-01-24 22:43:00,
2013-01-24 17:48:00,69.2,50.8,30.22,WSW,249,5.0,6.0,52,0.00,,,0.00,Wunderground v.1.15,2013-01-24 22:48:00,
2013-01-24 17:58:00,68.9,51.1,30.23,WNW,283,5.0,5.0,53,0.00,,,0.00,Wunderground v.1.15,2013-01-24 22:58:00,
2013-01-24 18:04:00,68.8,51.0,30.23,WNW,291,5.0,7.0,53,0.00,,,0.00,Wunderground v.1.15,2013-01-24 23:04:00,
2013-01-24 18:13:00,68.6,51.3,30.23,WNW,295,3.0,4.0,54,0.00,,,0.00,Wunderground v.1.15,2013-01-24 23:13:00,
2013-01-24 18:23:00,68.3,51.0,30.23,West,277,2.0,3.0,54,0.00,,,0.00,Wunderground v.1.15,2013-01-24 23:23:00,
2013-01-24 18:33:00,67.7,50.9,30.24,West,266,2.0,3.0,55,0.00,,,0.00,Wunderground v.1.15,2013-01-24 23:33:00,
2013-01-24 18:43:00,67.1,50.9,30.24,West,261,1.0,1.0,56,0.00,,,0.00,Wunderground v.1.15,2013-01-24 23:43:00,
2013-01-24 18:48:00,66.9,51.2,30.24,West,260,1.0,1.0,57,0.00,,,0.00,Wunderground v.1.15,2013-01-24 23:48:00,
2013-01-24 18:58:00,66.1,50.9,30.24,WNW,302,0.0,0.0,58,0.00,,,0.00,Wunderground v.1.15,2013-01-24 23:58:00,
2013-01-24 19:04:00,65.1,50.9,30.24,NNE,19,0.0,0.0,60,0.00,,,0.00,Wunderground v.1.15,2013-01-25 00:04:00,
2013-01-24 19:13:00,64.3,51.0,30.25,WNW,283,0.0,0.0,62,0.00,,,0.00,Wunderground v.1.15,2013-01-25 00:13:00,
2013-01-24 19:23:00,65.4,51.6,30.25,West,272,2.0,2.0,61,0.00,,,0.00,Wunderground v.1.15,2013-01-25 00:23:00,
2013-01-24 19:33:00,65.7,51.4,30.25,SW,225,1.0,2.0,60,0.00,,,0.00,Wunderground v.1.15,2013-01-25 00:33:00,
2013-01-24 19:43:00,65.4,51.6,30.25,WNW,286,1.0,1.0,61,0.00,,,0.00,Wunderground v.1.15,2013-01-25 00:43:00,
2013-01-24 19:53:00,65.0,51.7,30.26,SSE,155,1.0,1.0,62,0.00,,,0.00,Wunderground v.1.15,2013-01-25 00:53:00,
2013-01-24 20:04:00,64.1,51.7,30.26,WNW,288,1.0,1.0,64,0.00,,,0.00,Wunderground v.1.15,2013-01-25 01:04:00,
2013-01-24 20:13:00,63.8,51.4,30.26,West,277,2.0,2.0,64,0.00,,,0.00,Wunderground v.1.15,2013-01-25 01:13:00,
2013-01-24 20:23:00,63.5,51.5,30.26,WNW,292,1.0,2.0,65,0.00,,,0.00,Wunderground v.1.15,2013-01-25 01:23:00,
2013-01-24 20:28:00,63.2,51.2,30.26,WNW,287,1.0,1.0,65,0.00,,,0.00,Wunderground v.1.15,2013-01-25 01:28:00,
2013-01-24 20:38:00,62.4,51.3,30.26,WNW,297,0.0,1.0,67,0.00,,,0.00,Wunderground v.1.15,2013-01-25 01:38:00,
2013-01-24 20:48:00,61.0,50.8,30.27,NNW,327,0.0,0.0,69,0.00,,,0.00,Wunderground v.1.15,2013-01-25 01:48:00,
2013-01-24 20:53:00,60.1,50.7,30.27,NNW,329,0.0,0.0,71,0.00,,,0.00,Wunderground v.1.15,2013-01-25 01:53:00,
2013-01-24 21:03:00,58.8,50.5,30.27,NNE,16,0.0,1.0,74,0.00,,,0.00,Wunderground v.1.15,2013-01-25 02:03:00,
2013-01-24 21:13:00,58.1,50.2,30.27,NNE,30,0.0,0.0,75,0.00,,,0.00,Wunderground v.1.15,2013-01-25 02:13:00,
2013-01-24 21:18:00,57.8,50.3,30.27,NE,36,0.0,0.0,76,0.00,,,0.00,Wunderground v.1.15,2013-01-25 02:18:00,
2013-01-24 21:28:00,57.3,50.1,30.28,NE,34,0.0,0.0,77,0.00,,,0.00,Wunderground v.1.15,2013-01-25 02:28:00,
2013-01-24 21:33:00,57.2,50.4,30.28,NE,34,0.0,0.0,78,0.00,,,0.00,Wunderground v.1.15,2013-01-25 02:33:00,
2013-01-24 21:43:00,57.6,50.8,30.28,NNW,328,0.0,0.0,78,0.00,,,0.00,Wunderground v.1.15,2013-01-25 02:43:00,
2013-01-24 21:48:00,58.0,50.8,30.28,NW,322,0.0,0.0,77,0.00,,,0.00,Wunderground v.1.15,2013-01-25 02:48:00,
2013-01-24 21:58:00,58.6,51.1,30.29,NE,43,0.0,0.0,76,0.00,,,0.00,Wunderground v.1.15,2013-01-25 02:58:00,
2013-01-24 22:04:00,58.6,51.1,30.29,NNW,333,0.0,0.0,76,0.00,,,0.00,Wunderground v.1.15,2013-01-25 03:04:00,
2013-01-24 22:13:00,58.7,50.8,30.29,NNW,331,0.0,1.0,75,0.00,,,0.00,Wunderground v.1.15,2013-01-25 03:13:00,
2013-01-24 22:23:00,58.9,50.6,30.30,South,173,2.0,3.0,74,0.00,,,0.00,Wunderground v.1.15,2013-01-25 03:23:00,
2013-01-24 22:33:00,59.4,50.4,30.30,East,99,3.0,5.0,72,0.00,,,0.00,Wunderground v.1.15,2013-01-25 03:33:00,
2013-01-24 22:38:00,59.3,50.6,30.30,ENE,74,4.0,4.0,73,0.00,,,0.00,Wunderground v.1.15,2013-01-25 03:38:00,
2013-01-24 22:48:00,58.9,52.1,30.30,SSW,213,5.0,5.0,78,0.00,,,0.00,Wunderground v.1.15,2013-01-25 03:48:00,
2013-01-24 22:53:00,58.7,52.5,30.30,ENE,77,5.0,8.0,80,0.00,,,0.00,Wunderground v.1.15,2013-01-25 03:53:00,
2013-01-24 23:03:00,58.2,53.4,30.30,North,349,4.0,8.0,84,0.00,,,0.00,Wunderground v.1.15,2013-01-25 04:03:00,
2013-01-24 23:13:00,57.7,53.5,30.31,East,90,5.0,5.0,86,0.00,,,0.00,Wunderground v.1.15,2013-01-25 04:13:00,
2013-01-24 23:18:00,57.6,53.4,30.31,ESE,114,5.0,5.0,86,0.00,,,0.00,Wunderground v.1.15,2013-01-25 04:18:00,
2013-01-24 23:28:00,57.3,53.5,30.31,SSE,156,5.0,5.0,87,0.00,,,0.00,Wunderground v.1.15,2013-01-25 04:28:00,
2013-01-24 23:38:00,57.0,53.2,30.31,NNW,333,4.0,4.0,87,0.00,,,0.00,Wunderground v.1.15,2013-01-25 04:38:00,
2013-01-24 23:48:00,56.8,53.3,30.31,ESE,109,4.0,4.0,88,0.00,,,0.00,Wunderground v.1.15,2013-01-25 04:48:00,
2013-01-24 23:58:00,56.6,53.1,30.31,NE,56,4.0,5.0,88,0.00,,,0.00,Wunderground v.1.15,2013-01-25 04:58:00,